This demonstration page uses our WeatherBlox Daily Observations layout. Learn more.

Left ArrowRight Arrow

39.08367, -84.50855

Hourly Observations for March 6, 2015

Temp ( °F °C ) Dew Point ( °F °C ) Humidity (%) Winds ( mph kmh ) Pressure ( in mb ) Visibility ( mi km ) Precip ( " mm )
12:53 am 00:53 Clear 9 -12.8 6 -14.4 88 88 N 3 6 30.6 1036 9 14.48406 N/A
1:38 am 01:38 Partly Cloudy 7 -14 3 -16 85 85 N 3 6 30.65 1038 8 12.87472 N/A
1:53 am 01:53 Mostly Clear 6 -14.4 4 -15.6 91 91 N 3 6 30.61 1037 7 11.26538 N/A
2:53 am 02:53 Partly Cloudy with Mist and Fog 8 -13.3 5 -15 87 87 N N/A 30.62 1037 6 9.65604 N/A
3:04 am 03:04 Mostly Cloudy with Mist and Fog 5 -15 3 -16 92 92 N 3 6 30.65 1038 6 9.65604 N/A
3:28 am 03:28 Partly Cloudy with Mist and Fog 5 -15 3 -16 92 92 N N/A 30.65 1038 6 9.65604 N/A
3:37 am 03:37 Mostly Cloudy 7 -13.9 4 -15.6 87 87 NNW 3 6 30.65 1038 7 11.26538 N/A
3:53 am 03:53 Cloudy 7 -13.9 4 -15.6 87 87 N N/A 30.61 1037 8 12.87472 N/A
4:10 am 04:10 Cloudy with Mist and Fog 5 -15 3 -16 92 92 N N/A 30.65 1038 1.5 2.41401 N/A
4:18 am 04:18 Mostly Cloudy with Freezing Fog 6 -14.4 5 -15 95 95 N N/A 30.65 1038 0.25 0.402335 N/A
4:53 am 04:53 Mostly Cloudy with Freezing Fog 6 -14.4 4 -15.6 91 91 N N/A 30.6 1036 0.25 0.402335 N/A
4:59 am 04:59 Mostly Cloudy with Mist and Fog 6 -14.4 4 -15.6 91 91 N N/A 30.65 1038 1 1.60934 N/A
5:06 am 05:06 Mostly Cloudy with Freezing Fog 7 -14 5 -15 92 92 N N/A 30.65 1038 0.5 0.80467 N/A
5:20 am 05:20 Mostly Cloudy with Mist and Fog 7 -14 5 -15 92 92 SW 3 6 30.65 1038 0.75 1.207005 N/A
5:27 am 05:27 Mostly Cloudy with Freezing Fog 5 -15 4 -15.6 95 95 SSW 5 7 30.65 1038 0.5 0.80467 N/A
5:34 am 05:34 Mostly Cloudy with Freezing Fog 7 -14 5 -15 92 92 SSW 3 6 30.65 1038 0.25 0.402335 N/A
5:53 am 05:53 Mostly Cloudy with Mist and Fog 7 -13.9 5 -15 91 91 N N/A 30.62 1037 0.75 1.207005 N/A
6:08 am 06:08 Mostly Cloudy with Freezing Fog 7 -14 3 -16 85 85 N N/A 30.65 1038 0.25 0.402335 N/A
6:53 am 06:53 Mostly Cloudy with Freezing Fog 6 -14.4 5 -15 95 95 N N/A 30.62 1037 0.25 0.402335 N/A
7:20 am 07:20 Mostly Cloudy with Freezing Fog 7 -14 3 -16 85 85 N N/A 30.65 1038 0.5 0.80467 N/A
7:24 am 07:24 Mostly Cloudy with Mist and Fog 6 -14.4 4 -15.6 91 91 N N/A 30.65 1038 1 1.60934 N/A
7:53 am 07:53 Partly Cloudy with Mist and Fog 4 -15.6 4 -15.6 100 100 N N/A 30.63 1037 3 4.82802 N/A
8:53 am 08:53 Sunny with Light Snow 7 -13.9 7 -13.9 100 100 N N/A 30.63 1037 5 8.0467 N/A
9:53 am 09:53 Sunny 14 -10 N/A N/A N N/A 30.64 1038 8 12.87472 N/A
10:53 am 10:53 Sunny 17 -8.3 9 -12.8 70 70 SSW 9 15 30.62 1037 10 16.0934 N/A
11:53 am 11:53 Sunny 20 -6.7 7 -13.9 57 57 S 9 15 30.61 1037 10 16.0934 N/A
12:53 pm 12:53 Sunny 22 -5.6 8 -13.3 55 55 S 8 13 30.58 1035 10 16.0934 N/A
1:53 pm 13:53 Sunny 24 -4.4 10 -12.2 55 55 SSW 9 15 30.53 1034 10 16.0934 N/A
2:53 pm 14:53 Sunny 25 -3.9 11 -11.7 55 55 SSW 9 15 30.5 1033 10 16.0934 N/A
3:53 pm 15:53 Sunny 26 -3.3 12 -11.1 55 55 SSW 10 17 30.48 1032 10 16.0934 N/A
4:53 pm 16:53 Mostly Sunny 27 -2.8 10 -12.2 49 49 SW 13 20 30.46 1031 10 16.0934 N/A
5:53 pm 17:53 Sunny 26 -3.3 11 -11.7 53 53 SSW 13 20 30.44 1031 10 16.0934 N/A
6:53 pm 18:53 Clear 23 -5 13 -10.6 65 65 SSW 8 13 30.43 1031 10 16.0934 N/A
7:53 pm 19:53 Clear 24 -4.4 15 -9.4 68 68 S 10 17 30.43 1031 10 16.0934 N/A
8:53 pm 20:53 Clear 22 -5.6 14 -10 71 71 S 9 15 30.44 1031 10 16.0934 N/A
9:53 pm 21:53 Clear 20 -6.7 14 -10 78 78 SSW 7 11 30.43 1031 10 16.0934 N/A
10:53 pm 22:53 Clear 21 -6.1 13 -10.6 71 71 SSW 10 17 30.42 1030 10 16.0934 N/A
11:53 pm 23:53 Clear 19 -7.2 13 -10.6 77 77 S 6 9 30.42 1030 10 16.0934 N/A

Powered by AerisWeather